Home > Weather > Meissen > Past weeks

Flag for Germany Weather for the Past 2 Weeks in Meissen, Saxony, Germany

Now
41 °F

Partly sunny.


Feels Like: 35 °F
Forecast: 38 / 48 °F
Wind: 9 mph from Southeast

Location: Dresden-Klotzsche

Current Time: Feb 13, 2016 at 2:42:56 PM

Latest Report: Feb 13, 2016 at 2:20 PM


Visibility: N/A

Pressure: 29.33 "Hg

Humidity: 66%

Dew point: 30 °F

Location of MeissenLocation

Historic Weather in Meissen — Graph

°F

Meissen Temperature Yesterday

Maximum temperature yesterday: 41 °F (at 11:50 AM)
Minimum temperature yesterday: 32 °F (at 7:20 AM)
Average temperature yesterday: 36 °F

High & Low Weather Summary for the Past Weeks

 TemperatureHumidityPressure
High55 °F (Feb 2, 12:50 PM)100% (Feb 1, 3:20 AM)30.30 "Hg (Feb 1, 3:20 AM)
Low28 °F (Feb 13, 6:20 AM)50% (Jan 29, 1:20 PM)29.09 "Hg (Feb 9, 10:20 PM)
Average42 °F75%29.77 "Hg
* Reported Jan 29 1:20 PM — Feb 13 1:20 PM, Meissen, Weather by CustomWeather, © 2016

Note: Actual official high and low records may vary slightly from our data, if they occured in-between our weather recording intervals... More about our weather records

Advertising

Meissen Weather History for the Previous 24 Hours

 ConditionsComfort  
Time TempWeatherWind HumidityBarometerVisibility
1:20 PM
Sat, Feb 13
39 °FPartly sunny.9 mph70%29.33 "HgN/A
12:50 PM39 °FPartly sunny.10 mph70%29.36 "HgN/A
12:20 PM39 °FScattered clouds.8 mph70%29.36 "HgN/A
11:50 AM39 °FPartly sunny.7 mph70%29.39 "HgN/A
11:20 AM39 °FScattered clouds.9 mph75%29.39 "HgN/A
10:50 AM39 °FPassing clouds.8 mph75%29.39 "HgN/A
10:20 AM37 °FPassing clouds.6 mph75%29.39 "HgN/A
9:50 AM36 °FSunny.2 mph81%29.42 "Hg10 mi
9:20 AM34 °FSunny.2 mph81%29.42 "Hg10 mi
8:50 AM32 °FSunny.3 mph87%29.42 "Hg10 mi
8:20 AM32 °FSunny.5 mph87%29.42 "Hg10 mi
7:50 AM30 °FSunny.6 mph93%29.42 "Hg10 mi
7:20 AM28 °FClear.3 mph93%29.42 "Hg10 mi
6:50 AM30 °FClear.6 mph86%29.42 "Hg10 mi
6:20 AM28 °FClear.7 mph93%29.42 "Hg10 mi
5:50 AM30 °FClear.7 mph86%29.42 "Hg10 mi
5:20 AM30 °FClear.6 mph93%29.42 "Hg10 mi
4:20 AM30 °FClear.7 mph93%29.45 "Hg10 mi
3:20 AM30 °FClear.7 mph86%29.45 "Hg10 mi
2:20 AM32 °FClear.6 mph87%29.45 "Hg10 mi
1:50 AM30 °FClear.6 mph93%29.45 "Hg10 mi
1:20 AM32 °FClear.6 mph87%29.47 "Hg10 mi
12:50 AM32 °FClear.6 mph87%29.47 "Hg10 mi
12:20 AM32 °FClear.6 mph87%29.47 "Hg10 mi
11:50 PM
Fri, Feb 12
32 °FClear.7 mph87%29.47 "Hg10 mi
10:50 PM32 °FClear.6 mph87%29.47 "Hg10 mi
10:20 PM32 °FClear.8 mph93%29.47 "Hg10 mi
9:50 PM32 °FClear.8 mph93%29.50 "Hg10 mi
9:20 PM32 °FClear.6 mph87%29.50 "Hg10 mi
8:50 PM32 °FClear.6 mph93%29.50 "Hg10 mi
8:20 PM34 °FClear.7 mph87%29.50 "Hg10 mi
7:50 PM34 °FClear.5 mph87%29.50 "Hg10 mi
7:20 PM36 °FClear.9 mph81%29.50 "Hg10 mi
6:50 PM36 °FClear.7 mph81%29.53 "Hg10 mi
6:20 PM36 °FClear.5 mph81%29.53 "Hg10 mi
5:50 PM36 °FClear.5 mph81%29.53 "Hg10 mi
5:20 PM37 °FClear.3 mph75%29.53 "Hg10 mi
4:50 PM39 °FScattered clouds.2 mph70%29.53 "HgN/A
4:20 PM39 °FScattered clouds.5 mph70%29.56 "HgN/A
3:50 PM39 °FScattered clouds.6 mph70%29.56 "HgN/A
3:20 PM41 °FScattered clouds.7 mph70%29.56 "HgN/A
2:50 PM41 °FScattered clouds.6 mph66%29.56 "HgN/A
2:20 PM41 °FScattered clouds.5 mph61%29.56 "HgN/A
Weather by CustomWeather, © 2016

See weather overviewHow to use our weather pages